Location: Newark
(16.3678°N, 77.8722°E)
Time: 04:00:22
(UTC+00:00)

LightSail 2 - Visible Passes

Search period start: 13 November 2019 00:00
Search period end: 23 November 2019 00:00
Orbit: 701 x 726 km, 24.0° (Epoch: 11 November)

Date Brightness Start Highest point End Pass type
(mag) Time Alt. Az. Time Alt. Az. Time Alt. Az.
13 Nov 6.1 00:05:19 14° WNW 00:09:14 35° N 00:14:00 10° ENE visible
13 Nov 6.0 23:11:07 35° N 23:11:12 35° N 23:15:57 10° ENE visible
14 Nov 7.6 22:16:52 16° NE 22:16:52 16° NE 22:17:58 10° ENE visible
14 Nov 6.0 23:55:51 18° NW 23:59:14 38° N 00:04:05 10° ENE visible
15 Nov 6.2 23:01:36 35° NNE 23:01:36 35° NNE 23:05:56 10° ENE visible
16 Nov 7.9 22:07:19 12° ENE 22:07:19 12° ENE 22:07:50 10° ENE visible
16 Nov 5.7 23:46:18 23° NW 23:49:09 46° NNE 23:54:09 10° E visible
17 Nov 6.2 22:52:01 37° NE 22:52:01 37° NE 22:55:59 10° ENE visible
18 Nov 5.3 00:31:42 10° WNW 00:36:54 81° NNE 00:42:08 10° ESE visible
18 Nov 8.1 21:57:44 10° ENE 21:57:44 10° ENE 21:57:49 10° ENE visible
18 Nov 5.3 23:36:43 33° NW 23:38:56 64° NNE 23:44:06 10° E visible
19 Nov 6.3 22:42:26 38° ENE 22:42:26 38° ENE 22:45:59 10° E visible
20 Nov 5.4 00:21:26 10° WNW 00:26:34 64° SSW 00:31:43 10° ESE visible
20 Nov 7.7 14:36:26 10° SSW 14:37:02 12° SSW 14:37:02 12° SSW visible
20 Nov 5.1 23:27:08 48° WNW 23:28:38 86° SSW 23:33:50 10° ESE visible
21 Nov 7.2 13:39:47 10° S 13:42:05 13° SSE 13:42:46 13° SE visible
21 Nov 6.6 22:32:51 34° E 22:32:51 34° E 22:35:50 10° ESE visible
22 Nov 6.1 00:11:50 12° W 00:16:08 38° SSW 00:20:56 10° SE visible
22 Nov 6.9 14:24:58 10° SW 14:27:29 24° SSW 14:27:29 24° SSW visible
22 Nov 5.4 23:17:34 49° SW 23:18:12 53° SSW 23:23:15 10° SE visible
